Tracking 18785 objects as of 21-July-2017
HD Live streaming from Space Station
objects crossing your sky now
MAYAK may become the brightest orbital object in the night sky!
Where is MAYAK now?
How to spot MAYAK

SCOUT X-4 DEB

Track SCOUT X-4 DEB now!
10-day predictions


NORAD ID: 2088
Int'l Code: 1965-093D
Perigee: 665.3 km
Apogee: 774.3 km
Inclination: 59.7 °
Period: 99.0 minutes
Semi major axis: 7090 km
RCS: 0.0298 m2 (small)
Launch date: November 19, 1965
Source: United States (US)
Launch site: WALLOPS ISLAND (WLPIS)

Note: This is SATELLITE DEBRIS
Your satellite tracking list
Your tracking list is empty





NASA's NSSDC Master Catalog

Two Line Element Set (TLE):
1  2088U 65093D   17201.46534957 -.00000051 +00000-0 +25754-4 0  9999
2  2088 059.7210 352.6701 0076857 259.2187 100.0198 14.53973538680040
Source of the keplerian elements: AFSPC